Swanton, OH

3:57 AM EST on February 21, 2017 (GMT -0500)
Toledo Express

Weather History for KTOL - October, 2012

Change the Weather History Date:

Monday, October 29, 2012

  Actual Average Record
Temperature  
Mean Temperature 40 °F 48 °F  
Max Temperature 43 °F 58 °F 78 °F (1999)
Min Temperature 37 °F 38 °F 16 °F (1965)
Degree Days  
Heating Degree Days 25 17  
Month to date heating degree days 361 368  
Since 1 July heating degree days 509 492  
Cooling Degree Days 0 0  
Month to date cooling degree days 6 8  
Year to date cooling degree days 998 792  
Moisture  
Dew Point 27 °F    
Average Humidity 55    
Maximum Humidity 64    
Minimum Humidity 45    
Precipitation  
Precipitation T in 0.08 in 0.50 in (1973)
Month to date precipitation 1.66 2.44  
Year to date precipitation 26.80 28.54  
Snow  
Snow 0.00 in 0.10 in - ()
Month to date snowfall 0.0 0.2  
Since 1 July snowfall 0.0 0.2  
Since 1 September snowfall 0.0 0.2  
Snow Depth 0.00 in    
Sea Level Pressure  
Sea Level Pressure 29.97 in    
Wind  
Wind Speed 20 mph (NNW)    
Max Wind Speed 35 mph    
Max Gust Speed 49 mph    
Visibility 10 miles    
Events      
T = Trace of Precipitation, MM = Missing Value Source: NWS Daily Summary

Daily Weather History Graph

Daily Weather History Graph

Search for Another Location

Airport or City:

Trip Planner

Search our weather history database for the weather conditions in past years. The results will help you decide how hot, cold, wet, or windy it might be!

Date:

Astronomy

Oct. 29, 2012 Rise Set
Actual Time 8:04 AM EDT 6:33 PM EDT
Civil Twilight 7:35 AM EDT 7:01 PM EDT
Nautical Twilight 7:02 AM EDT 7:34 PM EDT
Astronomical Twilight 6:30 AM EDT 8:06 PM EDT
Moon 6:23 PM EDT (10/29) 7:53 AM EDT (10/29)
Length of Visible Light 11h 26m
Length of Day
10h 29m
Full, 100% of the Moon is Illuminated
Oct 29
Full
Oct 29
Full
Nov 6
Last Quarter
Nov 13
New
Nov 20
First Quarter

Hourly Weather History & Observations

Time (EDT) Temp. Windchill Dew Point Humidity Pressure Visibility Wind Dir Wind Speed Gust Speed Precip Events Conditions
12:52 AM 41.0 °F 34.3 °F 28.9 °F 62% 30.09 in 10.0 mi North 11.5 mph 20.7 mph N/A   Overcast
1:52 AM 41.0 °F 33.1 °F 26.1 °F 55% 30.08 in 10.0 mi NNW 15.0 mph 21.9 mph N/A   Overcast
2:52 AM 41.0 °F 33.5 °F 26.1 °F 55% 30.07 in 10.0 mi North 13.8 mph 24.2 mph N/A   Overcast
3:52 AM 39.9 °F 31.4 °F 27.0 °F 60% 30.06 in 10.0 mi NNW 16.1 mph 25.3 mph N/A   Overcast
4:52 AM 39.9 °F 32.1 °F 27.0 °F 60% 30.05 in 10.0 mi NNW 13.8 mph 21.9 mph N/A   Overcast
5:52 AM 39.2 °F 31.2 °F 26.6 °F 61% 30.04 in 10.0 mi NNW 13.8 mph - N/A   Overcast
6:52 AM 39.9 °F 31.4 °F 27.0 °F 60% 30.05 in 10.0 mi NNW 16.1 mph 24.2 mph N/A   Overcast
7:52 AM 39.9 °F 31.8 °F 27.0 °F 60% 30.05 in 10.0 mi NNW 15.0 mph - N/A   Overcast
8:52 AM 39.0 °F 30.3 °F 27.0 °F 62% 30.05 in 10.0 mi NNW 16.1 mph 25.3 mph N/A   Overcast
9:52 AM 39.0 °F 29.9 °F 28.0 °F 65% 30.04 in 10.0 mi North 17.3 mph - N/A   Overcast
10:52 AM 39.9 °F 30.0 °F 28.0 °F 63% 30.04 in 10.0 mi North 21.9 mph 28.8 mph N/A   Mostly Cloudy
11:52 AM 41.0 °F 31.4 °F 28.0 °F 60% 30.02 in 10.0 mi North 21.9 mph 33.4 mph N/A   Overcast
12:31 PM 42.8 °F 34.5 °F 28.4 °F 57% 30.00 in 10.0 mi North 18.4 mph 27.6 mph N/A   Overcast
12:52 PM 42.1 °F 32.6 °F 28.9 °F 60% 30.00 in 10.0 mi North 23.0 mph 34.5 mph N/A   Overcast
1:40 PM 42.8 °F 33.3 °F 28.4 °F 57% 29.97 in 10.0 mi North 24.2 mph 33.4 mph N/A   Overcast
1:52 PM 43.0 °F 33.5 °F 28.9 °F 58% 29.98 in 10.0 mi NNW 24.2 mph 31.1 mph N/A   Overcast
2:52 PM 43.0 °F 34.5 °F 28.9 °F 58% 29.96 in 10.0 mi NNW 19.6 mph 27.6 mph N/A   Overcast
3:52 PM 43.0 °F 33.3 °F 28.9 °F 58% 29.94 in 10.0 mi North 25.3 mph 35.7 mph N/A   Overcast
4:52 PM 42.1 °F 33.6 °F 28.0 °F 58% 29.93 in 10.0 mi North 18.4 mph 32.2 mph N/A   Overcast
5:52 PM 42.8 °F 34.3 °F 28.4 °F 57% 29.88 in 10.0 mi NNW 19.6 mph 29.9 mph N/A   Overcast
6:52 PM 43.0 °F 34.8 °F 27.0 °F 53% 29.88 in 10.0 mi NNW 18.4 mph 26.5 mph N/A   Overcast
7:52 PM 43.0 °F 35.1 °F 25.0 °F 49% 29.85 in 10.0 mi NNW 17.3 mph 31.1 mph N/A   Overcast
8:52 PM 43.0 °F 33.5 °F 24.1 °F 47% 29.81 in 10.0 mi North 24.2 mph 41.4 mph N/A   Overcast
9:52 PM 42.1 °F 31.7 °F 23.0 °F 47% 29.78 in 10.0 mi North 27.6 mph 41.4 mph N/A   Overcast
10:52 PM 41.0 °F 30.7 °F 21.9 °F 47% 29.75 in 10.0 mi NNW 25.3 mph 36.8 mph N/A   Overcast
11:52 PM 39.9 °F 28.2 °F 23.0 °F 51% 29.70 in 10.0 mi North 31.1 mph 43.7 mph N/A   Overcast